User: anonymous   Login
Location: Unspecified
(0.0000°N, 0.0000°E)
Time: 05:48:40
(UTC+00:00)
Language:

GOES 5 - Orbit

View from above orbital plane
View from above orbital plane
View from above satellite
View from above satellite

Ground track
Ground track

The orbit data is extracted from the following two-line orbital elements,

1 12472U 81049A   18349.07088262  .00000088  00000-0  00000+0 0  9991
2 12472  13.8391 339.2674 0005868 297.6483  52.3037  1.00294652 95477
Epoch (UTC): 15 December 2018 01:42:04
Eccentricity: 0.0005868
inclination: 13.8391°
perigee height: 35755 km
apogee height: 35804 km
right ascension of ascending node: 339.2674°
argument of perigee: 297.6483°
revolutions per day: 1.00294652
mean anomaly at epoch: 52.3037°
orbit number at epoch: 9547

The dashed part of the orbit path shows where the satellite is in the earth's shadow,  

DLR